Location: lozzo di cadore
(46.4899°N, 12.4508°E)
Time: 22:35:46
(UTC+02:00)

Tiangong - Visible Passes

Search period start: 21 April 2024 00:00
Search period end: 01 May 2024 00:00
Orbit: 371 x 379 km, 41.5° (Epoch: 21 April)

Date Brightness Start Highest point End Pass type
(mag) Time Alt. Az. Time Alt. Az. Time Alt. Az.
21 Apr -0.8 22:00:39 10° WSW 22:02:42 27° SSW 22:02:42 27° SSW visible
22 Apr -1.2 20:57:54 10° WSW 21:00:41 31° S 21:02:50 14° ESE visible
22 Apr 0.5 22:34:23 10° WSW 22:34:50 13° WSW 22:34:50 13° WSW visible
23 Apr -1.0 21:31:25 10° WSW 21:34:07 28° S 21:34:52 24° SSE visible
24 Apr -0.1 22:05:14 10° WSW 22:06:50 17° SW 22:06:50 17° SW visible
25 Apr -0.6 21:02:01 10° WSW 21:04:35 24° SSW 21:06:43 12° SE visible
26 Apr 0.1 21:36:04 10° WSW 21:37:42 14° SSW 21:38:34 12° S visible
